Location: Unspecified
(0.0000°N, 0.0000°E)
Time: 07:29:26
(UTC+02:00)

Amateur Radio Satellites - All Passes

Search period start: 17 September 2014 06:59
Search period end: 18 September 2014 06:59
Location: Unspecified, 0.0000°N, 0.0000°E

Satellite Date Start Highest point End Downlink Frequencies (MHz)
Time Altitude Azimuth
JAS-2 17 Sep 07:34:49 07:41:35 89° 283° (WNW) 07:49:11 435.800 - 435.900 CW/SSB, 435.910 FM
KITSAT 1 17 Sep 08:05:41 08:13:45 89° 250° (WSW) 08:21:49 435.175 FM
Hamsat 17 Sep 08:09:33 08:13:03 26° 281° (WNW) 08:16:34 145.90 MHz
STRAND 1 17 Sep 08:23:54 08:29:00 76° 77° (ENE) 08:34:04 ?
SO-67 17 Sep 08:36:05 08:39:27 55° 101° (E) 08:42:50 435.3500 MHz FM
MaSat-1 17 Sep 09:01:50 09:06:15 64° 106° (ESE) 09:11:07 437.345 MHz
SO-50 17 Sep 09:53:15 09:55:50 14° 67° (ENE) 09:58:25 436.795 FM
HO-68 17 Sep 10:08:58 10:15:40 43° 105° (ESE) 10:22:21 435.675 MHz FM
Oscar 11 17 Sep 11:07:32 11:11:41 48° 102° (ESE) 11:15:51 145.825 FM, Beacon 2401.500 USB
UKube-1 17 Sep 11:21:06 11:25:24 66° 282° (WNW) 11:29:45 145.840 MHz, 145.915 MHz
SO-50 17 Sep 11:31:52 11:36:10 32° 248° (WSW) 11:40:28 436.795 FM
PANSAT 17 Sep 11:34:29 11:38:17 59° 30° (NNE) 11:42:06 not established
Sapphire 17 Sep 11:45:59 11:48:25 13° 110° (ESE) 11:50:50 437.095 MHz 1200 baud AX-25 AFSK
UOSAT-12 17 Sep 11:47:06 11:49:51 16° 67° (ENE) 11:52:35 437.025 FM, 437.400 FM
HO-68 17 Sep 11:57:59 12:03:01 21° 285° (WNW) 12:08:06 435.675 MHz FM
PCSat 17 Sep 12:11:05 12:15:46 30° 109° (ESE) 12:20:26 145.825 MHz
FUNcube-1 17 Sep 12:25:41 12:29:58 41° 282° (WNW) 12:34:11 145.950 - 145.970 MHz USB
PANSAT 17 Sep 13:15:36 13:18:25 19° 209° (SSW) 13:21:15 not established
UOSAT-12 17 Sep 13:26:02 13:29:45 25° 248° (WSW) 13:33:25 437.025 FM, 437.400 FM
Sapphire 17 Sep 13:26:34 13:31:35 40° 289° (WNW) 13:36:35 437.095 MHz 1200 baud AX-25 AFSK
ISS 17 Sep 13:41:32 13:44:09 22° 54° (NE) 13:46:46 145.800 FM
PCSat 17 Sep 13:55:24 13:58:54 18° 290° (WNW) 14:02:24 145.825 MHz
Oscar 16 17 Sep 14:08:16 14:10:30 13° 77° (ENE) 14:12:43 437.025 USB, Beacon 2401.1428
AO-Echo 17 Sep 14:43:43 14:45:47 13° 78° (ENE) 14:47:49 ?
ITAMSAT 1 17 Sep 14:46:32 14:48:13 12° 77° (ENE) 14:49:53 435.822 SSB
Uribyol 2 17 Sep 14:50:20 14:53:07 15° 77° (ENE) 14:55:54 436.500 FM
Oscar 19 17 Sep 15:06:07 15:11:16 70° 78° (ENE) 15:16:25 437.125 CW, 437.150 USB
AO-27 17 Sep 15:17:52 15:22:26 32° 77° (ENE) 15:26:58 436.795 MHz FM
ISS 17 Sep 15:19:28 15:20:40 12° 234° (SW) 15:21:52 145.800 FM
JAS-1B 17 Sep 15:28:09 15:37:53 65° 77° (ENE) 15:46:35 435.800 - 435.900 CW/SSB
Oscar 16 17 Sep 15:44:48 15:49:33 38° 257° (WSW) 15:54:19 437.025 USB, Beacon 2401.1428
Gurwin Techsat 1B 17 Sep 15:55:06 15:59:51 34° 78° (ENE) 16:04:35 435.225 FM
RS-15 17 Sep 16:02:11 16:13:07 49° 70° (ENE) 16:24:27 29.354 - 29.394 USB, Beacon 29.352 USB
AO-40 17 Sep 16:19:37 16:25:13 90° 161° (SSE) 16:45:04 Beacon 2401.320
AO-Echo 17 Sep 16:19:50 16:24:20 34° 257° (WSW) 16:28:41 ?
ITAMSAT 1 17 Sep 16:22:36 16:27:26 41° 257° (WSW) 16:32:15 435.822 SSB
Uribyol 2 17 Sep 16:27:44 16:32:19 33° 257° (WSW) 16:36:54 436.500 FM
TMSAT-1 17 Sep 16:33:23 16:38:38 67° 78° (ENE) 16:43:52 436.925 FM
AO-7 17 Sep 16:42:21 16:47:45 19° 73° (ENE) 16:53:06 29.400 - 29.500 MHz
AO-27 17 Sep 16:58:42 17:01:40 15° 257° (WSW) 17:04:37 436.795 MHz FM
Saudisat 1A 17 Sep 17:04:50 17:08:35 27° 112° (ESE) 17:12:19 436.775 MHz
JAS-1B 17 Sep 17:21:05 17:27:36 20° 253° (WSW) 17:33:49 435.800 - 435.900 CW/SSB
Uosat F 17 Sep 17:27:27 17:31:51 31° 77° (ENE) 17:36:14 435.120 FM
Gurwin Techsat 1B 17 Sep 17:36:35 17:39:32 15° 257° (WSW) 17:42:29 435.225 FM
RS-15 17 Sep 18:15:26 18:25:10 31° 248° (WSW) 18:35:18 29.354 - 29.394 USB, Beacon 29.352 USB
KITSAT 1 17 Sep 18:23:12 18:26:38 13° 112° (ESE) 18:30:03 435.175 FM
AO-7 17 Sep 18:32:02 18:40:08 56° 254° (WSW) 18:48:12 29.400 - 29.500 MHz
OPAL 17 Sep 18:41:09 18:46:06 55° 284° (WNW) 18:51:01 ?
Hamsat 17 Sep 18:42:04 18:44:36 15° 78° (ENE) 18:47:08 145.90 MHz
Saudisat 1A 17 Sep 18:45:58 18:47:54 13° 293° (WNW) 18:49:50 436.775 MHz
Uosat F 17 Sep 19:07:40 19:10:21 15° 257° (WSW) 19:13:02 435.120 FM
JAS-2 17 Sep 19:10:21 19:16:11 48° 79° (ENE) 19:21:25 435.800 - 435.900 CW/SSB, 435.910 FM
STRAND 1 17 Sep 19:21:16 19:22:47 11° 103° (ESE) 19:24:18 ?
KITSAT 1 17 Sep 20:13:46 20:21:48 71° 290° (WNW) 20:29:50 435.175 FM
Hamsat 17 Sep 20:16:57 20:20:17 22° 258° (WSW) 20:23:38 145.90 MHz
SO-67 17 Sep 20:21:03 20:24:06 29° 79° (E) 20:27:07 435.3500 MHz FM
MaSat-1 17 Sep 20:53:59 20:56:43 41° 72° (ENE) 20:59:10 437.345 MHz
STRAND 1 17 Sep 20:56:51 21:01:40 42° 283° (WNW) 21:06:31 ?
JAS-2 17 Sep 20:58:54 21:00:44 11° 254° (WSW) 21:02:30 435.800 - 435.900 CW/SSB, 435.910 FM
PANSAT 17 Sep 21:45:00 21:45:30 10° 153° (SSE) 21:45:59 not established
HO-68 17 Sep 22:00:57 22:07:19 36° 75° (ENE) 22:13:39 435.675 MHz FM
SO-50 17 Sep 22:05:41 22:09:11 23° 112° (ESE) 22:12:40 436.795 FM
FUNcube-1 17 Sep 23:03:11 23:04:22 11° 78° (ENE) 23:05:32 145.950 - 145.970 MHz USB
Oscar 11 17 Sep 23:16:36 23:20:55 67° 78° (ENE) 23:25:13 145.825 FM, Beacon 2401.500 USB
PANSAT 17 Sep 23:21:56 23:25:45 63° 150° (SSE) 23:29:33 not established
UKube-1 17 Sep 23:31:05 23:35:15 47° 258° (WSW) 23:39:24 145.840 MHz, 145.915 MHz
SO-50 17 Sep 23:46:54 23:49:28 15° 293° (WNW) 23:52:03 436.795 FM
HO-68 17 Sep 23:49:08 23:54:41 25° 255° (WSW) 00:00:15 435.675 MHz FM
UOSAT-12 17 Sep 23:56:10 23:59:53 26° 112° (ESE) 00:03:39 437.025 FM, 437.400 FM
Sapphire 18 Sep 00:19:44 00:24:48 41° 71° (ENE) 00:29:52 437.095 MHz 1200 baud AX-25 AFSK
FUNcube-1 18 Sep 00:36:52 00:40:28 28° 259° (WSW) 00:44:08 145.950 - 145.970 MHz USB
PCSat 18 Sep 00:46:39 00:52:03 85° 251° (WSW) 00:57:27 145.825 MHz
PANSAT 18 Sep 01:03:12 01:05:53 18° 331° (NNW) 01:08:34 not established
ISS 18 Sep 01:17:54 01:19:51 15° 126° (SE) 01:21:47 145.800 FM
UOSAT-12 18 Sep 01:37:19 01:39:46 15° 293° (WNW) 01:42:16 437.025 FM, 437.400 FM
Oscar 19 18 Sep 02:05:19 02:06:01 10° 103° (ESE) 02:06:42 437.125 CW, 437.150 USB
Sapphire 18 Sep 02:05:43 02:07:58 13° 250° (WSW) 02:10:14 437.095 MHz 1200 baud AX-25 AFSK
Oscar 16 18 Sep 02:39:47 02:44:22 33° 103° (ESE) 02:48:57 437.025 USB, Beacon 2401.1428
ISS 18 Sep 02:54:06 02:56:22 17° 306° (NW) 02:58:38 145.800 FM
AO-Echo 18 Sep 03:10:10 03:14:34 31° 103° (ESE) 03:19:05 ?
ITAMSAT 1 18 Sep 03:18:38 03:23:14 32° 103° (ESE) 03:27:51 435.822 SSB
Uribyol 2 18 Sep 03:23:10 03:28:01 40° 103° (ESE) 03:32:52 436.500 FM
TMSAT-1 18 Sep 03:35:13 03:37:08 12° 103° (ESE) 03:39:02 436.925 FM
JAS-1B 18 Sep 03:39:20 03:45:02 65° 104° (ESE) 03:51:29 435.800 - 435.900 CW/SSB
Oscar 19 18 Sep 03:40:12 03:45:04 44° 282° (WNW) 03:49:56 437.125 CW, 437.150 USB
RS-15 18 Sep 03:45:41 03:56:15 40° 112° (ESE) 04:06:18 29.354 - 29.394 USB, Beacon 29.352 USB
AO-27 18 Sep 03:52:23 03:57:36 87° 103° (ESE) 04:02:51 436.795 MHz FM
Oscar 16 18 Sep 04:20:44 04:23:26 14° 283° (WNW) 04:26:09 437.025 USB, Beacon 2401.1428
Gurwin Techsat 1B 18 Sep 04:33:02 04:38:20 83° 282° (WNW) 04:43:40 435.225 FM
AO-Echo 18 Sep 04:50:11 04:53:05 16° 282° (WNW) 04:56:03 ?
ITAMSAT 1 18 Sep 04:59:25 05:02:27 16° 283° (WNW) 05:05:29 435.822 SSB
Uribyol 2 18 Sep 05:05:06 05:07:12 12° 283° (WNW) 05:09:18 436.500 FM
AO-7 18 Sep 05:06:52 05:13:58 32° 106° (ESE) 05:21:04 29.400 - 29.500 MHz
Saudisat 1A 18 Sep 05:10:31 05:14:40 43° 68° (ENE) 05:18:50 436.775 MHz
TMSAT-1 18 Sep 05:11:47 05:16:45 42° 282° (WNW) 05:21:44 436.925 FM
OPAL 18 Sep 05:35:16 05:39:06 22° 75° (ENE) 05:42:58 ?
Uosat F 18 Sep 05:56:30 06:01:31 76° 103° (ESE) 06:06:33 435.120 FM
RS-15 18 Sep 05:58:11 06:08:08 35° 291° (WNW) 06:17:48 29.354 - 29.394 USB, Beacon 29.352 USB
KITSAT 1 18 Sep 06:29:34 06:34:40 18° 69° (ENE) 06:39:45 435.175 FM
JAS-2 18 Sep 06:41:06 06:46:59 30° 105° (ESE) 06:53:21 435.800 - 435.900 CW/SSB, 435.910 FM
Hamsat 18 Sep 06:48:57 06:51:51 18° 102° (ESE) 06:54:44 145.90 MHz
